Stations météo

réclame
Mon MeteoGroup
AWG, Pays-Bas (6208): Température de l'air & dewpoint: 11.01.2019 01:00:00 - 17.01.2019 01:00:00 (CET)AWG, Pays-Bas (6208): Vitesse du vent & gusts: 11.01.2019 01:00:00 - 17.01.2019 01:00:00 (CET)AWG, Pays-Bas (6208): Direction du vent: 11.01.2019 01:00:00 - 17.01.2019 01:00:00 (CET)AWG, Pays-Bas (6208): reduced air pressure: 11.01.2019 01:00:00 - 17.01.2019 01:00:00 (CET)AWG, Pays-Bas (6208): visibility: 11.01.2019 01:00:00 - 17.01.2019 01:00:00 (CET)
Date & Time tt [°C] td [°C] ff [km/h] ff [knt] fx [km/h] fx [knt] dd ppp [hPa] vv [km]
17.01.2019 01:00:00 6,0 3,6 35 19 40 21 WSW 996,9 10
17.01.2019 00:00:00 5,4 2,7 24 13 29 16 WSW 997,1 10
16.01.2019 23:00:00 5,2 2,4 35 19 36 19 WNW 997,1 7
16.01.2019 22:00:00 5,3 2,9 39 21 43 23 WNW 997,2 7
16.01.2019 21:00:00 6,0 4,6 52 28 54 29 SSW 996,8 7
16.01.2019 20:00:00 6,0 4,7 50 27 61 33 SSW 996,9 5
16.01.2019 19:00:00 6,1 4,9 40 21 50 27 SSW 997,7 3,0
16.01.2019 18:00:00 6,3 5,1 46 25 50 27 SSW 998,6 6
16.01.2019 17:00:00 6,5 5,2 46 25 54 29 SSW 999,5 6
16.01.2019 16:00:00 6,4 5,4 54 29 58 31 SSW 999,9 4,1
16.01.2019 15:00:00 6,5 5,6 48 26 54 29 SSW 1000,9 5
16.01.2019 14:00:00 6,7 5,9 50 27 50 27 SSW 1001,6 4,1
16.01.2019 13:00:00 6,9 6,0 46 25 54 29 SW 1002,7 5
16.01.2019 12:00:00 7,1 6,3 46 25 50 27 SW 1003,2 5
16.01.2019 11:00:00 7,5 6,5 46 25 50 27 SW 1004,3 9
16.01.2019 10:00:00 7,5 6,5 44 24 47 25 SW 1004,9 8
16.01.2019 09:00:00 7,3 6,2 42 23 47 25 SW 1005,3 7
16.01.2019 08:00:00 7,3 5,6 42 23 43 23 SW 1005,5 10
16.01.2019 07:00:00 7,4 5,6 39 21 40 21 SW 1006,0 10
16.01.2019 06:00:00 7,4 5,6 35 19 40 21 SW 1006,4 10
16.01.2019 05:00:00 7,7 6,0 37 20 40 21 WSW 1007,2 10
16.01.2019 04:00:00 7,6 6,2 31 17 36 19 WSW 1007,9 10
16.01.2019 03:00:00 7,3 6,1 29 16 32 18 WSW 1008,5 10
16.01.2019 02:00:00 7,1 5,8 35 19 36 19 SW 1008,8 10
16.01.2019 01:00:00 7,1 5,8 35 19 36 19 SW 1009,3 10
16.01.2019 00:00:00 7,4 5,8 37 20 36 19 WSW 1009,7 10
15.01.2019 23:00:00 7,4 5,7 29 16 32 18 WSW 1010,3 10
15.01.2019 22:00:00 8,1 5,3 39 21 40 21 W 1010,7 10
15.01.2019 21:00:00 8,0 5,8 37 20 40 21 W 1010,7 8
15.01.2019 20:00:00 7,9 6,0 39 21 40 21 W 1010,8 9
15.01.2019 19:00:00 7,8 5,9 41 22 40 21 W 1010,8 8
15.01.2019 18:00:00 7,8 5,9 41 22 40 21 W 1010,9 8
15.01.2019 17:00:00 7,8 5,9 39 21 43 23 W 1011,1 8
15.01.2019 16:00:00 7,7 5,9 42 23 43 23 W 1011,1 7
15.01.2019 15:00:00 7,5 6,2 46 25 47 25 W 1011,3 6
15.01.2019 14:00:00 7,8 5,8 44 24 47 25 W 1011,4 9
15.01.2019 13:00:00 7,8 5,7 44 24 47 25 W 1011,8 8
15.01.2019 12:00:00 7,7 5,4 42 23 47 25 W 1012,5 9
15.01.2019 11:00:00 7,5 5,4 42 23 47 25 W 1012,9 7
15.01.2019 10:00:00 7,3 5,2 39 21 40 21 W 1013,1 6
15.01.2019 09:00:00 7,3 5,5 39 21 40 21 W 1013,2 8
15.01.2019 08:00:00 7,3 5,2 37 20 40 21 W 1013,3 9
15.01.2019 07:00:00 7,2 5,4 37 20 36 19 W 1013,4 8
15.01.2019 06:00:00 7,0 5,0 35 19 36 19 W 1014,2 6
15.01.2019 05:00:00 6,9 4,5 34 18 36 19 W 1014,8 8
15.01.2019 04:00:00 6,6 3,8 35 19 36 19 WSW 1015,2 10
15.01.2019 03:00:00 6,2 2,3 31 17 32 18 WSW 1015,9 10
15.01.2019 02:00:00 5,9 1,0 31 17 32 18 WSW 1016,5 10
15.01.2019 01:00:00 6,4 0,7 31 17 32 18 W 1016,6 10
15.01.2019 00:00:00 6,2 0,0 35 19 36 19 WNW 1016,9 10
14.01.2019 23:00:00 6,0 0,1 29 16 36 19 WNW 1017,0 10
14.01.2019 22:00:00 5,9 -1,0 41 22 47 25 NW 1017,3 10
14.01.2019 21:00:00 4,8 0,6 42 23 54 29 NNW 1017,0 10
14.01.2019 20:00:00 5,6 -1,6 50 27 54 29 NW 1016,4 10
14.01.2019 19:00:00 5,6 0,5 44 24 54 29 NW 1016,1 10
14.01.2019 18:00:00 5,5 -0,3 55 30 61 33 NNW 1015,2 10
14.01.2019 17:00:00 5,9 -2,0 63 34 68 37 NW 1014,6 10
14.01.2019 16:00:00 5,2 -0,6 59 32 61 33 NNW 1013,9 10
14.01.2019 15:00:00 5,7 -2,5 63 34 72 39 NW 1013,0 10
14.01.2019 14:00:00 5,8 -3,5 70 38 72 39 NW 1012,2 10
14.01.2019 13:00:00 5,6 -3,2 68 37 72 39 NNW 1011,5 10
14.01.2019 12:00:00 5,7 -2,3 72 39 72 39 NNW 1011,3 10
14.01.2019 11:00:00 5,5 -0,4 57 31 72 39 NW 1010,9 10
14.01.2019 10:00:00 4,6 0,2 61 33 72 39 NW 1010,4 10
14.01.2019 09:00:00 4,6 0,4 54 29 72 39 NNW 1009,6 10
14.01.2019 08:00:00 4,2 1,1 67 36 72 39 N 1008,9 10
14.01.2019 07:00:00 4,2 0,5 76 41 76 41 NNW 1007,7 7
14.01.2019 06:00:00 5,3 1,3 48 26 61 33 NNW 1007,4 10
14.01.2019 05:00:00 6,3 1,0 44 24 47 25 NW 1006,3 10
14.01.2019 04:00:00 6,4 0,7 48 26 50 27 NNW 1005,8 10
14.01.2019 03:00:00 6,3 1,4 50 27 54 29 N 1004,9 10
14.01.2019 02:00:00 6,6 1,5 50 27 54 29 NNW 1003,5 10
14.01.2019 01:00:00 6,8 2,9 41 22 47 25 NNW 1002,4 10
14.01.2019 00:00:00 7,0 4,8 44 24 58 31 NW 1001,2 10
13.01.2019 23:00:00 7,5 4,7 63 34 65 35 NW 999,9 10
13.01.2019 22:00:00 7,8 4,6 68 37 79 43 NW 998,8 9
13.01.2019 21:00:00 8,2 4,2 74 40 76 41 WNW 997,8 10
13.01.2019 20:00:00 8,2 4,2 70 38 79 43 WNW 996,9 10
13.01.2019 19:00:00 8,1 4,6 80 43 86 47 WNW 996,7 10
13.01.2019 18:00:00 8,1 4,5 74 40 79 43 WNW 995,9 10
13.01.2019 17:00:00 8,3 4,5 76 41 86 47 WNW 996,2 10
13.01.2019 16:00:00 7,9 5,1 83 45 94 51 NW 996,1 3,8
13.01.2019 15:00:00 9,0 6,8 55 30 61 33 WNW 996,5 9
13.01.2019 14:00:00 8,6 7,0 52 28 54 29 W 997,4 8
13.01.2019 13:00:00 8,3 7,0 40 21 47 25 W 998,6 8
13.01.2019 12:00:00 8,2 7,0 42 23 47 25 W 999,8 7
13.01.2019 11:00:00 8,4 7,0 44 24 47 25 WNW 1000,8 8
13.01.2019 10:00:00 8,1 7,5 44 24 47 25 WNW 1001,3 2,7
13.01.2019 09:00:00 8,1 7,5 46 25 47 25 WNW 1001,7 2,4
13.01.2019 08:00:00 8,1 7,6 46 25 47 25 WNW 1002,1 3,0
13.01.2019 07:00:00 8,1 7,6 46 25 47 25 W 1002,7 2,4
13.01.2019 06:00:00 8,1 7,5 39 21 40 21 W 1003,8 4,0
13.01.2019 05:00:00 8,1 7,3 35 19 36 19 W 1005,2 4,0
13.01.2019 04:00:00 7,9 6,8 34 18 36 19 W 1006,3 7
13.01.2019 03:00:00 7,8 6,7 34 18 36 19 W 1007,3 6
13.01.2019 02:00:00 7,7 6,4 35 19 36 19 W 1007,7 9
13.01.2019 01:00:00 7,9 6,2 39 21 40 21 WNW 1008,4 10
13.01.2019 00:00:00 8,0 6,1 36 19 43 23 WNW 1008,5 11
12.01.2019 23:00:00 7,9 5,9 41 22 40 21 WNW 1008,7 10
12.01.2019 22:00:00 7,9 5,6 41 22 40 21 WNW 1008,9 10
12.01.2019 21:00:00 7,9 5,7 41 22 50 27 W 1009,3 10
12.01.2019 20:00:00 7,8 5,6 39 21 50 27 WNW 1009,5 10
12.01.2019 19:00:00 7,8 5,5 41 22 50 27 WNW 1009,6 10
12.01.2019 18:00:00 7,9 5,5 48 26 50 27 WNW 1009,6 10
12.01.2019 17:00:00 7,7 5,6 37 20 40 21 WNW 1009,7 10
12.01.2019 16:00:00 7,8 5,7 37 20 47 25 WNW 1010,4 10
12.01.2019 15:00:00 7,9 5,5 44 24 50 27 WNW 1010,5 10
12.01.2019 14:00:00 8,1 5,6 55 30 58 31 WNW 1010,4 10
12.01.2019 13:00:00 8,0 6,2 48 26 58 31 WNW 1011,3 10
12.01.2019 12:00:00 7,9 6,5 46 25 50 27 W 1011,6 9
12.01.2019 11:00:00 7,4 6,7 46 25 50 27 W 1012,9 4,6
12.01.2019 10:00:00 7,4 6,3 42 23 43 23 W 1014,0 4,2
12.01.2019 09:00:00 7,2 5,7 35 19 36 19 WSW 1015,0 8
12.01.2019 08:00:00 7,2 5,6 29 16 36 19 W 1015,9 9
12.01.2019 07:00:00 7,0 4,7 34 18 36 19 WSW 1016,7 10
12.01.2019 06:00:00 7,1 3,2 31 17 32 18 W 1017,9 10
12.01.2019 05:00:00 7,4 3,3 34 18 36 19 W 1019,0 10
12.01.2019 04:00:00 7,5 4,6 35 19 40 21 W 1019,6 10
12.01.2019 03:00:00 7,8 4,3 34 18 36 19 WNW 1020,0 10
12.01.2019 02:00:00 7,3 5,2 41 22 50 27 WNW 1020,8 10
12.01.2019 01:00:00 7,1 5,7 41 22 54 29 WNW 1020,7 7
12.01.2019 00:00:00 6,9 5,7 41 22 47 25 WNW 1021,6 10
11.01.2019 23:00:00 7,2 5,5 41 22 47 25 WNW 1021,8 10
11.01.2019 22:00:00 7,0 5,6 44 24 47 25 NW 1021,9 10
11.01.2019 21:00:00 7,3 5,6 48 26 54 29 NW 1022,0 10
11.01.2019 20:00:00 7,5 5,8 52 28 50 27 WNW 1021,5 10
11.01.2019 19:00:00 7,6 6,0 57 31 58 31 NW 1021,4 10
11.01.2019 18:00:00 7,7 6,0 52 28 54 29 WNW 1021,1 10
11.01.2019 17:00:00 7,7 6,2 50 27 50 27 NW 1021,1 8
11.01.2019 16:00:00 7,5 6,3 50 27 54 29 NW 1021,5 6
11.01.2019 15:00:00 7,5 6,4 46 25 47 25 NW 1021,4 5
11.01.2019 14:00:00 7,5 6,6 44 24 47 25 NW 1021,6 10
11.01.2019 13:00:00 7,5 6,6 48 26 47 25 NW 1021,7 7
11.01.2019 12:00:00 7,6 6,3 42 23 47 25 WNW 1021,8 10
11.01.2019 11:00:00 7,6 6,3 46 25 47 25 NW 1021,9 10
11.01.2019 10:00:00 7,4 6,5 48 26 47 25 NW 1021,7 10
11.01.2019 09:00:00 7,3 6,6 42 23 43 23 WNW 1021,9 10
11.01.2019 08:00:00 7,5 6,4 39 21 40 21 NW 1022,2 9
11.01.2019 07:00:00 7,4 6,3 39 21 40 21 NW 1022,4 9
11.01.2019 06:00:00 7,5 6,1 37 20 40 21 NW 1022,5 9
11.01.2019 05:00:00 7,5 6,7 39 21 40 21 NW 1022,7 8
11.01.2019 04:00:00 7,5 6,5 37 20 36 19 NW 1022,9 10
11.01.2019 03:00:00 7,3 7,1 31 17 32 18 NNW 1023,1 10
11.01.2019 02:00:00 7,3 7,1 28 15 29 16 NNW 1023,0 4,0
11.01.2019 01:00:00 7,3 7,3 28 15 29 16 N 1023,3 0,4

tt = Température de l'air
td = dewpoint
ff = Vitesse du vent
fx = gusts
dd = Direction du vent
ppp = reduced air pressure
vv = visibility

stations d'obs. à proximité